Location: Igon
(43.1667°N, 0.2333°W)
Time: 06:51:23
(UTC+00:00)

FENGYUN 1C DEB - Visible Passes

Search period start: 21 June 2021 00:00
Search period end: 01 July 2021 00:00
Orbit: 476 x 667 km, 98.9° (Epoch: 20 June)

Date Brightness Start Highest point End Pass type
(mag) Time Alt. Az. Time Alt. Az. Time Alt. Az.
21 Jun ? 01:40:39 10° NNE 01:45:11 61° ESE 01:46:58 35° SSE visible
21 Jun ? 03:16:55 10° NNW 03:19:42 16° WNW 03:22:31 10° W visible
22 Jun ? 01:43:02 10° NNE 01:47:35 64° ESE 01:49:24 35° S visible
22 Jun ? 03:19:22 10° NNW 03:22:05 16° WNW 03:24:47 10° W visible
23 Jun ? 01:45:24 10° NNE 01:49:58 67° ESE 01:51:50 35° S visible
23 Jun ? 03:21:50 10° NNW 03:24:27 15° WNW 03:27:04 10° W visible
24 Jun ? 01:47:46 10° NNE 01:52:22 70° ESE 01:54:14 35° S visible
24 Jun ? 03:24:18 10° NNW 03:26:48 15° WNW 03:29:19 10° W visible
25 Jun ? 01:50:08 10° NNE 01:54:45 73° ESE 01:56:39 35° S visible
25 Jun ? 03:26:46 10° NNW 03:29:10 14° WNW 03:31:33 10° W visible
26 Jun ? 01:52:30 10° NNE 01:57:07 76° ESE 01:59:02 35° S visible
26 Jun ? 03:29:14 10° NNW 03:31:30 14° WNW 03:33:46 10° W visible
27 Jun ? 01:54:52 10° NNE 01:59:30 79° ESE 02:01:26 35° S visible
27 Jun ? 03:31:43 10° NNW 03:33:50 13° WNW 03:35:58 10° W visible
28 Jun ? 01:57:13 10° NNE 02:01:51 82° ESE 02:03:48 35° S visible
28 Jun ? 03:34:11 10° NNW 03:36:11 13° WNW 03:38:10 10° W visible
29 Jun ? 01:59:34 10° NNE 02:04:13 85° ESE 02:06:10 34° SSW visible
29 Jun ? 03:36:41 10° NW 03:38:30 12° WNW 03:40:19 10° W visible
30 Jun ? 02:01:55 10° NNE 02:06:34 88° ESE 02:08:32 34° SSW visible
30 Jun ? 03:39:12 10° NW 03:40:49 12° WNW 03:42:27 10° W visible
